Home > Weather > Riffa > Past weeks

Flag for Bahrain Past Weather in Riffa, Bahrain — Yesterday and Last 2 Weeks

Now
86 °F

Clear.


Feels Like: 87 °F
Forecast: 85 / 98 °F
Wind: 14 mph from Northwest

Location: Bahrain International Airport

Current Time: May 26, 2016 at 9:41:12 PM

Latest Report: May 26, 2016 at 8:00 PM


Visibility: 10 mi

Pressure: 29.68 "Hg

Humidity: 46%

Dew Point: 63 °F

Location of RiffaLocation

Past Weather in Riffa — Graph

°F

Riffa Temperature Yesterday

Maximum temperature yesterday: 91 °F (at 11:00 AM)
Minimum temperature yesterday: 84 °F (at 10:00 PM)
Average temperature yesterday: 88 °F

High & Low Weather Summary for the Past Weeks

 TemperatureHumidityPressure
High106 °F (May 12, 2:00 PM)94% (May 16, 9:00 PM)29.83 "Hg (May 16, 9:00 PM)
Low81 °F (May 17, 5:00 AM)11% (May 24, 2:00 PM)29.56 "Hg (May 19, 4:00 PM)
Average90 °F47%29.68 "Hg
* Reported May 11 8:00 PM — May 26 8:00 PM, Riffa, Weather by CustomWeather, © 2016

Note: Actual official high and low records may vary slightly from our data, if they occured in-between our weather recording intervals... More about our weather records

Advertising

Riffa Weather History for the Previous 24 Hours

Scroll right to see more
 ConditionsComfort  
Time TempWeatherWind HumidityBarometerVisibility
8:00 PM
Thu, May 26
86 °FClear.14 mph46%29.68 "Hg10 mi
7:00 PM86 °FClear.15 mph46%29.68 "Hg10 mi
6:00 PM88 °FSunny.16 mph40%29.68 "Hg10 mi
5:00 PM88 °FSunny.21 mph38%29.68 "Hg10 mi
4:00 PM90 °FSunny.23 mph33%29.68 "Hg10 mi
3:00 PM91 °FSunny.22 mph32%29.68 "Hg10 mi
2:00 PM91 °FSunny.22 mph32%29.71 "Hg10 mi
1:00 PM91 °FSunny.22 mph32%29.71 "Hg10 mi
12:00 PM91 °FSunny.23 mph30%29.71 "Hg10 mi
11:00 AM91 °FSunny.23 mph32%29.71 "Hg10 mi
10:00 AM91 °FSunny.18 mph36%29.74 "Hg10 mi
9:00 AM90 °FSunny.20 mph43%29.71 "Hg10 mi
8:00 AM88 °FSunny.20 mph49%29.71 "Hg10 mi
7:00 AM86 °FSunny.20 mph52%29.71 "Hg10 mi
6:00 AM84 °FSunny.18 mph58%29.68 "Hg10 mi
5:00 AM81 °FSunny.20 mph62%29.68 "Hg10 mi
4:00 AM81 °FClear.18 mph62%29.68 "Hg10 mi
3:00 AM82 °FClear.17 mph58%29.65 "Hg10 mi
2:00 AM84 °FClear.18 mph58%29.65 "Hg10 mi
1:00 AM84 °FClear.16 mph55%29.65 "Hg10 mi
12:00 AM84 °FClear.15 mph48%29.68 "Hg10 mi
11:00 PM
Wed, May 25
86 °FClear.14 mph43%29.68 "Hg10 mi
10:00 PM84 °FClear.15 mph48%29.68 "Hg10 mi
9:00 PM86 °FClear.17 mph43%29.68 "Hg10 mi
Weather by CustomWeather, © 2016

See weather overviewHow to use our weather pages